Regional Weather Roundup
Issued by NWS

Current Version | Previous Version | Text Only | Print | Product List | Glossary On
Versions: 1 2 3 4 5 6 7 8 9 10 11 12 13 14 15 16 17 18 19 20 21 22 23 24 25 26 27 28 29 30 31 32 33 34 35 36 37 38 39 40 41 42 43 44 45 46 47 48 49 50
000
ASUS43 KBIS 250210
RWRND

NORTH DAKOTA REGIONAL WEATHER ROUNDUP
NATIONAL WEATHER SERVICE BISMARCK ND
900 PM CDT THU JUL 24 2014

NOTE: "FAIR" INDICATES FEW OR NO CLOUDS BELOW 12,000 FEET WITH NO
SIGNIFICANT WEATHER AND/OR OBSTRUCTIONS TO VISIBILITY.


NDZ001>003-009>011-017-250300-
NORTHWEST NORTH DAKOTA

CITY           SKY/WX    TMP DP  RH WIND       PRES   REMARKS
WILLISTON      CLOUDY    80  67  64 VRB3      29.66R
MINOT          CLOUDY    73  66  78 E5        29.71R
MINOT AFB      MOCLDY    72  70  94 E5        29.71R
$$

NDZ018>021-031>035-040>046-250300-
SOUTHWEST NORTH DAKOTA

CITY           SKY/WX    TMP DP  RH WIND       PRES   REMARKS
BISMARCK       PTCLDY    76  65  68 SE20G28   29.68F
DICKINSON      CLOUDY    73  67  81 SE16      29.66F
GARRISON         N/A     72  67  84 SE7       29.68S
HETTINGER ARPT CLOUDY    79  67  66 E15       29.70F
$$

NDZ004>008-012>016-024-026-027-054-250300-
NORTHEAST NORTH DAKOTA

CITY           SKY/WX    TMP DP  RH WIND       PRES   REMARKS
GRAND FORKS    CLOUDY    72  61  68 SE16      29.75F
GRND FRKS AFB  CLOUDY    71  64  79 E8        29.77R
DEVILS LAKE    CLOUDY    72  63  73 SE12      29.73F
$$

NDZ022-023-025-028>030-036>039-047>053-250300-
SOUTHEAST NORTH DAKOTA

CITY           SKY/WX    TMP DP  RH WIND       PRES   REMARKS
FARGO          MOCLDY    73  62  68 SE24G33   29.74F
JAMESTOWN      PTCLDY    71  63  75 SE23G31   29.70F
$$



USA.gov is the U.S. government's official web portal to all federal, state and local government web resources and services.